Simultaneous Nadir Overpasses (SNOs) Predictions

Prediction of SNOs between METOP-A and NOAA-19 Satellite Orbit:

Table of predicted SNOs for the next 14.0 days since TLE Epoch: 3/13/2021
Index Date (METOP-A) Time (METOP-A) Lat,Lon (METOP-A) SZA (METOP-A ) Date (NOAA-19) Time (NOAA-19) Lat,Lon (NOAA-19) SZA (NOAA-19 ) Distance(km) Time Diff (sec)
1 03/17/2021 04:44:27 80.84, 119.98 82.17 03/17/2021 04:43:13 80.85, 120.04 82.18 1.84 74
2 03/17/2021 05:35:07 -80.86, -72.38 97.82 03/17/2021 05:34:17 -80.85, -72.41 97.84 0.97 50
3 03/17/2021 06:25:48 80.85, 94.83 82.16 03/17/2021 06:25:13 80.85, 94.69 82.15 2.55 35
4 03/17/2021 07:16:29 -80.85, -97.87 97.87 03/17/2021 07:16:17 -80.85, -97.75 97.86 2.13 12
5 03/17/2021 08:07:10 80.84, 69.34 82.12 03/17/2021 08:07:13 80.85, 69.34 82.13 1.06 3
6 03/17/2021 08:57:50 -80.86,-123.02 97.88 03/17/2021 08:58:17 -80.85,-123.10 97.89 1.94 27
7 03/17/2021 09:48:31 80.86, 44.20 82.11 03/17/2021 09:49:12 80.85, 44.37 82.11 3.11 41



Historial Predications of SNOs between METOP-A and NOAA-19
